Погода Ксевкияна неделю

Аура, Мальта

01 - 07 сентября
  • 01сентября
    Сегодня
    +27°
    +30°
    Ясно и безоблачно
    ВремяПогодаТемператураВлажностьДавлениеВетер, м/сВероятность осадков
    02:00Ясно и безоблачно+29°C79 %757 мм8.7 м/с2 %
    05:00Ясно и безоблачно+28°C74 %756 мм5.9 м/с2 %
    08:00Ясно и безоблачно+28°C84 %757 мм5.4 м/с2 %
    11:00Ясно и безоблачно+29°C79 %758 мм2.5 м/с2 %
    14:00Ясно и безоблачно+29°C76 %758 мм1.1 м/с2 %
    17:00Ясно и безоблачно+30°C77 %757 мм2.3 м/с2 %
    20:00Ясно и безоблачно+28°C73 %757 мм3.6 м/с2 %
    23:00Ясно и безоблачно+28°C75 %758 мм0.1 м/с2 %
  • 02сентября
    Среда
    +27°
    +31°
    Ясно и безоблачно
    ВремяПогодаТемператураВлажностьДавлениеВетер, м/сВероятность осадков
    02:00Ясно и безоблачно+28°C76 %758 мм2.7 м/с2 %
    05:00Ясно и безоблачно+27°C75 %758 мм1.2 м/с2 %
    08:00Ясно и безоблачно+28°C75 %758 мм2.2 м/с2 %
    11:00Ясно и безоблачно+29°C79 %760 мм0.3 м/с2 %
    14:00Ясно и безоблачно+29°C79 %759 мм2.9 м/с2 %
    17:00Ясно и безоблачно+30°C73 %758 мм4.2 м/с2 %
    20:00Ясно и безоблачно+28°C76 %758 мм4.2 м/с2 %
    23:00Ясно и безоблачно+28°C72 %759 мм4.9 м/с2 %
  • 03сентября
    Четверг
    +27°
    +31°
    Ясно и безоблачно
    ВремяПогодаТемператураВлажностьДавлениеВетер, м/сВероятность осадков
    02:00Ясно и безоблачно+28°C77 %758 мм3.6 м/с2 %
    05:00Ясно и безоблачно+28°C77 %757 мм4.1 м/с2 %
    08:00Ясно и безоблачно+27°C80 %758 мм2.7 м/с2 %
    11:00Ясно и безоблачно+28°C80 %758 мм1.4 м/с2 %
    14:00Ясно и безоблачно+29°C74 %758 мм3.1 м/с2 %
    17:00Ясно и безоблачно+30°C75 %757 мм3.5 м/с2 %
    20:00Ясно и безоблачно+28°C69 %757 мм1.6 м/с2 %
    23:00Ясно и безоблачно+28°C77 %757 мм3.2 м/с2 %
  • 04сентября
    Пятница
    +26°
    +30°
    Ясно и безоблачно
    ВремяПогодаТемператураВлажностьДавлениеВетер, м/сВероятность осадков
    02:00Ясно и безоблачно+28°C79 %757 мм5.8 м/с2 %
    05:00Ясно и безоблачно+27°C71 %757 мм5.3 м/с2 %
    08:00Ясно и безоблачно+28°C69 %758 мм7.6 м/с2 %
    11:00Ясно и безоблачно+29°C72 %759 мм6.0 м/с5 %
    14:00Ясно и безоблачно+30°C70 %759 мм5.1 м/с2 %
    17:00Ясно и безоблачно+29°C69 %758 мм3.7 м/с2 %
    20:00Ясно и безоблачно+28°C65 %759 мм2.5 м/с2 %
    23:00Ясно и безоблачно+28°C65 %760 мм1.6 м/с2 %
  • 05сентября
    Суббота
    +26°
    +30°
    Ясно и безоблачно
    ВремяПогодаТемператураВлажностьДавлениеВетер, м/сВероятность осадков
    02:00Ясно и безоблачно+27°C71 %760 мм2.7 м/с2 %
    05:00Ясно и безоблачно+27°C74 %760 мм4.1 м/с2 %
    08:00Ясно и безоблачно+27°C73 %760 мм3.9 м/с2 %
    11:00Ясно и безоблачно+29°C64 %761 мм3.4 м/с2 %
    14:00Ясно и безоблачно+29°C61 %761 мм4.0 м/с2 %
    17:00Ясно и безоблачно+30°C61 %760 мм2.0 м/с2 %
    20:00Ясно и безоблачно+28°C68 %760 мм1.6 м/с2 %
    23:00Ясно и безоблачно+28°C66 %761 мм2.6 м/с2 %
  • 06сентября
    Воскресенье
    +27°
    +30°
    Ясно и безоблачно
    ВремяПогодаТемператураВлажностьДавлениеВетер, м/сВероятность осадков
    02:00Ясно и безоблачно+27°C71 %760 мм2.9 м/с2 %
    08:00Ясно и безоблачно+27°C83 %761 мм2.8 м/с2 %
    14:00Ясно и безоблачно+29°C82 %761 мм3.2 м/с2 %
    20:00Ясно и безоблачно+28°C57 %760 мм3.4 м/с2 %
  • 07сентября
    Понедельник
    +28°
    +29°
    Ясно и безоблачно
    ВремяПогодаТемператураВлажностьДавлениеВетер, м/сВероятность осадков
    02:00Ясно и безоблачно+28°C74 %760 мм2.5 м/с2 %
    08:00Ясно и безоблачно+28°C74 %761 мм3.3 м/с2 %
    14:00Ясно и безоблачно+29°C71 %761 мм3.0 м/с2 %
    20:00Ясно и безоблачно+29°C72 %760 мм3.5 м/с2 %
Мы используем cookies
Соглашаюсь